#timestamp,LO_Frequency,Hit,StdDev 
1662228015.7,286046998.7,P
1662228035.6,286046999.4,N
1662228055.4,286046996.8,N
1662228075.3,286046997.0,N
1662228095.1,286046998.0,N
1662228096.0,286046998.0,N
1662228115.8,286046995.9,N
1662228135.7,286046995.6,N
1662228155.5,286046997.4,N
1662228175.3,286046995.2,N
1662228195.2,286046995.1,N
1662228215.0,286046995.3,N
1662228215.9,286046995.3,N
1662228235.8,286046997.6,N
1662228255.6,286046995.8,N
1662228275.4,286046995.5,N
1662228295.3,286046996.2,N
1662228315.1,286046997.6,N
1662228335.8,286046997.3,N
1662228355.7,286046998.4,N
1662228375.5,286046998.6,N
1662228395.4,286046995.3,N
1662228415.2,286046997.9,N
1662228435.0,286046995.4,N
1662228435.9,286046995.4,N
1662228455.8,286046999.6,N
1662228475.6,286046999.2,N
1662228495.4,286046996.5,N
1662228515.3,286046995.6,N
1662228535.1,286046997.2,N
1662228555.9,286046997.5,N
1662228575.7,286046997.4,N
1662228595.5,286046999.4,N
1662228615.4,286046999.6,N
1662228635.2,286046997.2,N
1662228655.0,286046997.9,N
1662228656.0,286046997.9,N
1662228675.8,286046997.6,N
1662228695.6,286046996.9,N
1662228715.5,286046999.2,N
1662228735.3,286046998.5,N
1662228755.1,286046998.6,N
1662228775.9,286047000.3,N
1662228795.7,286047000.7,N
1662228815.6,286046998.6,N
1662228835.4,286046998.1,N
1662228855.2,286046998.1,N
1662228875.1,286047000.4,N
1662228876.0,286047000.4,N
1662228895.8,286047000.2,N
1662228915.6,286047002.3,N
1662228935.5,286047002.7,N
1662228955.3,286047002.5,N
1662228975.2,286047001.5,N
1662228995.9,286047004.0,N
1662229015.7,286047005.9,N
1662229035.6,286047003.0,N
1662229055.4,286047003.1,N
1662229075.2,286047002.9,N
1662229095.1,286047003.0,N
1662229096.0,286047003.0,N
1662229115.8,286047005.5,N
1662229135.7,286047005.6,N
1662229155.5,286047003.4,N
1662229175.3,286047004.4,N
1662229195.2,286047001.5,N
1662229215.0,286047000.1,N
1662229215.9,286047000.1,N
1662229235.8,286046999.9,N
1662229255.6,286047000.3,N
1662229275.4,286047000.1,N
1662229295.3,286047000.8,N
1662229315.1,286046998.4,N
1662229335.8,286046998.7,N
1662229355.7,286047001.2,N
1662229375.5,286047000.8,N
1662229395.4,286047001.0,N
1662229415.2,286047001.1,N
1662229435.0,286046998.4,N
1662229435.9,286047011.9,Y
1662229455.8,286046997.6,P
1662229475.6,286046995.4,N
1662229495.4,286046995.5,N
1662229515.3,286046996.2,N
1662229535.1,286046995.3,N
1662229555.9,286046997.9,N
1662229575.7,286046995.4,N
1662229595.5,286046996.2,N
1662229615.4,286046995.0,N
1662229635.2,286046995.3,N
1662229655.0,286046995.8,N
1662229655.9,286046995.8,N
1662229675.8,286046995.9,N
1662229695.6,286046996.4,N
1662229715.5,286046995.8,N
1662229735.3,286046996.4,N
1662229755.1,286046993.6,Y
1662229775.9,286046995.4,P
1662229795.7,286046995.4,P
1662229815.6,286046995.8,P
1662229835.4,286046995.5,Y
1662229855.2,286046998.1,P
1662229875.1,286046998.6,N
1662229876.0,286046998.6,N
1662229895.8,286046998.5,N
1662229915.7,286046999.5,N
1662229935.5,286046999.0,N
1662229955.3,286046998.1,N
1662229975.2,286046998.2,N
1662229995.0,286046998.2,N
1662229995.9,286046998.2,N
1662230015.8,286046998.4,N
1662230035.6,286046998.8,N
1662230055.4,286046996.9,Y
1662230075.3,286046998.6,P
1662230095.1,286047000.7,P
1662230115.9,286046998.8,N
1662230135.7,286046998.8,N
1662230155.5,286046999.2,N
1662230175.4,286046998.6,N
1662230195.2,286046998.9,N
1662230215.1,286046998.4,N
1662230216.0,286046998.4,N
1662230235.8,286046998.9,N
1662230255.6,286046999.3,N
1662230275.5,286046998.8,N
1662230295.3,286046998.8,N
1662230315.1,286047000.7,N
1662230335.9,286046998.9,N
1662230355.7,286046998.3,N
1662230375.6,286046996.6,Y
1662230395.4,286046998.8,P
1662230415.2,286046998.8,P
1662230435.1,286046998.6,P
1662230436.0,286046998.6,Y
1662230455.8,286047001.0,P
1662230475.7,286046998.5,N
1662230495.5,286047000.6,N
1662230515.3,286047000.3,N
1662230535.2,286047001.2,N
1662230555.0,286047000.0,N
1662230555.9,286047000.0,N
1662230575.7,286047000.7,N
1662230595.6,286046999.9,N
1662230615.4,286046999.9,N
1662230635.3,286046998.9,N
1662230655.1,286046999.1,N
1662230675.8,286047000.8,N
1662230695.7,286046998.9,N
1662230715.5,286046998.5,N
1662230735.4,286046999.0,N
1662230755.2,286046998.2,N
1662230775.0,286046998.5,N
1662230775.9,286046998.5,N
1662230795.8,286046998.4,N
1662230815.6,286046999.6,N
1662230835.5,286046996.6,Y
1662230855.3,286046999.4,P
1662230875.1,286046999.2,P
1662230895.9,286046999.1,P
1662230915.7,286046999.3,Y
1662230935.6,286046998.3,P
1662230955.4,286046998.2,P
1662230975.2,286046998.6,N
1662230995.1,286046998.3,Y
1662230996.0,286046998.3,P
1662231015.8,286047000.0,N
1662231035.6,286046998.2,N
1662231055.5,286047000.9,N
1662231075.3,286047000.8,N
1662231095.2,286047000.6,N
1662231115.9,286046998.2,N
1662231135.7,286047001.2,N
1662231155.6,286047001.0,N
1662231175.4,286047001.2,N
1662231195.3,286047000.5,N
1662231215.1,286047000.6,N
1662231216.0,286047000.6,N
1662231235.8,286047000.9,N
1662231255.7,286047000.5,N
1662231275.5,286047000.4,N
1662231295.3,286047001.0,N
1662231315.2,286047001.2,N
1662231335.0,286046998.2,N
1662231335.9,286046998.2,N
1662231355.8,286047000.8,N
1662231375.6,286047000.7,N
1662231395.4,286046998.1,N
1662231415.3,286047000.9,N
1662231435.1,286047000.7,N
1662231455.8,286046998.2,N
1662231475.7,286047000.9,N
1662231495.5,286047000.8,N
1662231515.4,286047000.6,N
1662231535.2,286047000.8,N
1662231555.0,286047000.4,N
1662231555.9,286047000.4,N
1662231575.8,286047000.9,N
1662231595.6,286047000.5,N
